Location: Cary
(35.7910°N, 78.7810°W)
Time: 11:30:35
(UTC-05:00)

N. Korean satellite - Pass Details

Date: 04 December 2021
Orbit: 447 x 491 km, 97.3° (Epoch: 25 January)

Event Time Altitude Azimuth Distance (km) Brightness Sun altitude
Rises 06:10:26 0° 354° (N) 2,456 9.9 -11.9°
Reaches altitude 10° 06:12:49 10° 337° (NNW) 1,577 8.8 -11.4°
Maximum altitude 06:15:21 20° 289° (WNW) 1,093 7.7 -10.9°
Drops below altitude 10° 06:17:52 10° 240° (WSW) 1,569 8.8 -10.4°
Sets 06:20:15 0° 222° (SW) 2,438 9.9 -10.0°
